Location: Banff
(51.1667°N, 115.5667°W)
Time: 02:20:08
(UTC+00:00)

Explorer 7 - Pass Details

Date: 26 November 2020
Orbit: 484 x 678 km, 50.3° (Epoch: 16 January)

Event Time Altitude Azimuth Distance (km) Brightness Sun altitude
Exits shadow 14:06:56 14° 273° (W) 1,595 8.6 -10.7°
Maximum altitude 14:10:28 74° 189° (S) 560 6.9 -10.2°
Drops below altitude 10° 14:14:24 10° 105° (ESE) 1,737 11.0 -9.6°
Sets 14:16:32 0° 104° (ESE) 2,598 12.4 -9.3°
